Peoria, IL

9:13 PM CST on December 16, 2017 (GMT -0600)
Greater Peoria Regional

Weather History for KPIA - January, 2015

Change the Weather History Date:

Friday, January 9, 2015

  Actual Average Record
Temperature  
Mean Temperature 8 °F 25 °F  
Max Temperature 14 °F 33 °F 60 °F (1939)
Min Temperature 1 °F 17 °F -15 °F (1883)
Degree Days  
Heating Degree Days 57 40  
Month to date heating degree days 434 360  
Since 1 July heating degree days 2643 2638  
Cooling Degree Days 0 0  
Month to date cooling degree days 0 0  
Year to date cooling degree days 0 0  
Moisture  
Dew Point -4 °F    
Average Humidity 66    
Maximum Humidity 75    
Minimum Humidity 57    
Precipitation  
Precipitation T in 0.06 in 0.67 in (1924)
Month to date precipitation 1.22 0.58  
Year to date precipitation 1.22 0.58  
Snow  
Snow T in 0.30 in 6.90 in (1930)
Month to date snowfall 6.1 2.1  
Since 1 July snowfall 7.4 10.3  
Snow Depth 4.00 in    
Sea Level Pressure  
Sea Level Pressure 30.42 in    
Wind  
Wind Speed 12 mph (WNW)    
Max Wind Speed 23 mph    
Max Gust Speed 32 mph    
Visibility 9 miles    
Events Snow    
T = Trace of Precipitation, MM = Missing Value Source: NWS Daily Summary

Daily Weather History Graph

Daily Weather History Graph

Search for Another Location

Airport or City:

Trip Planner

Search our weather history database for the weather conditions in past years. The results will help you decide how hot, cold, wet, or windy it might be!

Date:

Astronomy

Jan. 09, 2015 Rise Set
Actual Time 7:22 AM CST 4:49 PM CST
Civil Twilight 6:51 AM CST 5:20 PM CST
Nautical Twilight 6:17 AM CST 5:54 PM CST
Astronomical Twilight 5:44 AM CST 6:27 PM CST
Moon 9:24 PM CST (1/9) 9:37 AM CST (1/9)
Length of Visible Light 10h 28m
Length of Day
9h 27m
Waning Gibbous, 82% of the Moon is Illuminated
Jan 9
Waning Gibbous
Jan 13
Last Quarter
Jan 20
New
Jan 26
First Quarter
Feb 3
Full

Hourly Weather History & Observations

Time (CST) Temp. Windchill Dew Point Humidity Pressure Visibility Wind Dir Wind Speed Gust Speed Precip Events Conditions
12:09 AM 12.9 °F -4.9 °F 5.0 °F 71% 30.12 in 3.0 mi WNW 19.6 mph 29.9 mph 0.00 in Snow Light Snow
12:54 AM 12.9 °F -1.6 °F 3.9 °F 67% 30.19 in 7.0 mi WNW 12.7 mph 24.2 mph 0.00 in   Overcast
1:54 AM 12.0 °F -4.5 °F 3.0 °F 67% 30.23 in 9.0 mi WNW 16.1 mph 32.2 mph 0.00 in   Overcast
2:54 AM 12.0 °F -2.7 °F -0.0 °F 59% 30.25 in 10.0 mi NW 12.7 mph 24.2 mph N/A   Mostly Cloudy
3:44 AM 10.9 °F -4.7 °F -2.0 °F 56% 30.23 in 10.0 mi WNW 13.8 mph 21.9 mph N/A   Partly Cloudy
3:54 AM 10.9 °F -6.5 °F -2.9 °F 54% 30.28 in 10.0 mi WNW 17.3 mph 27.6 mph N/A   Partly Cloudy
4:34 AM 10.0 °F -7.1 °F -4.0 °F 53% 30.27 in 10.0 mi WNW 16.1 mph 24.2 mph N/A   Mostly Cloudy
4:47 AM 9.0 °F -8.5 °F -2.9 °F 59% 30.28 in 10.0 mi WNW 16.1 mph 25.3 mph N/A   Scattered Clouds
4:54 AM 9.0 °F -6.6 °F -2.9 °F 59% 30.32 in 10.0 mi WNW 12.7 mph 25.3 mph N/A   Scattered Clouds
5:06 AM 9.0 °F -4.2 °F -2.9 °F 59% 30.29 in 10.0 mi WNW 9.2 mph 24.2 mph N/A   Mostly Cloudy
5:54 AM 8.1 °F -9.0 °F -2.9 °F 61% 30.37 in 10.0 mi WNW 15.0 mph 20.7 mph N/A   Overcast
6:30 AM 6.1 °F -7.8 °F -5.1 °F 60% 30.35 in 10.0 mi WNW 9.2 mph 18.4 mph N/A   Scattered Clouds
6:54 AM 6.1 °F -10.2 °F -6.0 °F 58% 30.40 in 10.0 mi WNW 12.7 mph - N/A   Clear
7:54 AM 5.0 °F -11.6 °F -7.1 °F 58% 30.42 in 10.0 mi WNW 12.7 mph 19.6 mph N/A   Clear
8:54 AM 7.0 °F -9.1 °F -6.0 °F 55% 30.45 in 10.0 mi WNW 12.7 mph 21.9 mph N/A   Clear
9:54 AM 8.1 °F -9.6 °F -4.0 °F 58% 30.48 in 10.0 mi WNW 16.1 mph 26.5 mph N/A   Clear
10:54 AM 9.0 °F -9.0 °F -4.0 °F 56% 30.48 in 10.0 mi WNW 17.3 mph 31.1 mph N/A   Overcast
11:54 AM 9.0 °F -8.5 °F -4.0 °F 56% 30.47 in 10.0 mi WNW 16.1 mph 23.0 mph N/A   Mostly Cloudy
12:54 PM 9.0 °F -9.0 °F -4.0 °F 56% 30.46 in 10.0 mi West 17.3 mph 24.2 mph N/A   Mostly Cloudy
1:54 PM 9.0 °F -9.0 °F -2.0 °F 61% 30.46 in 6.0 mi West 17.3 mph 24.2 mph 0.00 in   Haze
2:32 PM 8.1 °F -9.0 °F -2.9 °F 61% 30.43 in 9.0 mi West 15.0 mph 25.3 mph N/A   Scattered Clouds
2:39 PM 8.1 °F -10.2 °F -2.0 °F 64% 30.43 in 4.0 mi West 17.3 mph 25.3 mph 0.00 in   Mostly Cloudy
2:54 PM 8.6 °F -9.5 °F -4.0 °F 57% 30.44 in 7.0 mi WNW 17.3 mph 29.9 mph N/A   Mostly Cloudy
3:08 PM 8.1 °F -9.6 °F -5.1 °F 55% 30.44 in 10.0 mi WNW 16.1 mph 26.5 mph 0.00 in   Scattered Clouds
3:54 PM 9.0 °F -5.9 °F -2.9 °F 59% 30.50 in 10.0 mi WNW 11.5 mph 21.9 mph 0.00 in   Partly Cloudy
4:54 PM 7.0 °F -6.6 °F -4.0 °F 61% 30.53 in 10.0 mi WNW 9.2 mph - N/A   Partly Cloudy
5:54 PM 6.1 °F -6.8 °F -4.0 °F 63% 30.55 in 10.0 mi West 8.1 mph - N/A   Clear
6:54 PM 5.0 °F -6.9 °F -6.0 °F 61% 30.56 in 10.0 mi West 6.9 mph - N/A   Clear
7:54 PM 3.9 °F -6.9 °F -6.0 °F 64% 30.56 in 10.0 mi West 5.8 mph - N/A   Clear
8:54 PM 3.0 °F -6.4 °F -6.0 °F 66% 30.57 in 10.0 mi WSW 4.6 mph - N/A   Clear
9:54 PM 3.0 °F -8.0 °F -6.0 °F 66% 30.57 in 10.0 mi WSW 5.8 mph - N/A   Clear
10:54 PM 1.9 °F -7.6 °F -6.0 °F 69% 30.56 in 10.0 mi WSW 4.6 mph - N/A   Clear
11:54 PM 1.0 °F -10.3 °F -6.0 °F 72% 30.56 in 10.0 mi WSW 5.8 mph - N/A   Clear